CW1780 Weather Reports


time (UTC)temp
C
wind
direction
speed
KPH
gust
KPH
rain 1hr
cm
rain 24hr
cm
rain mn
cm
humidity
%
barometer
mb
20260504082003 5 0 0.0 0.0 0.00 0.00 0.00 77 1015.8
20260504081004 5 0 0.0 0.0 0.00 0.00 0.00 77 1015.8
20260504050003 6 0 0.0 0.0 0.00 0.00 0.00 68 1016.4
20260504045003 6 0 0.0 0.0 0.00 0.00 0.00 68 1016.3
20260504044003 6 0 0.0 0.0 0.00 0.00 0.00 67 1016.4
20260504043003 6 0 0.0 0.0 0.00 0.00 0.00 67 1016.2
20260504042003 6 0 0.0 0.0 0.00 0.00 0.00 66 1016.3
20260504041003 6 0 0.0 0.0 0.00 0.00 0.00 64 1016.3
20260504040004 6 0 0.0 0.0 0.00 0.00 0.00 64 1016.3
20260504035003 6 0 0.0 0.0 0.00 0.00 0.00 64 1016.2
20260504034003 6 0 0.0 0.0 0.00 0.00 0.00 65 1016.2
20260504033003 6 0 0.0 0.0 0.00 0.00 0.00 67 1016.2
20260504032003 6 0 0.0 0.0 0.00 0.00 0.00 67 1016.4
20260504031003 6 0 0.0 0.0 0.00 0.00 0.00 68 1016.4
20260504030003 6 0 0.0 0.0 0.00 0.00 0.00 67 1016.4
20260504025003 6 0 0.0 0.0 0.00 0.00 0.00 66 1016.2
20260504024003 6 0 0.0 0.0 0.00 0.00 0.00 65 1016.4
20260504023003 6 0 0.0 0.0 0.00 0.00 0.00 63 1016.2
20260504022003 6 0 0.0 0.0 0.00 0.00 0.00 61 1016.4
20260504021003 7 0 0.0 0.0 0.00 0.00 0.00 60 1016.4
20260504020003 7 0 0.0 0.0 0.00 0.00 0.00 59 1016.2
20260504015003 8 0 0.0 0.0 0.00 0.00 0.00 57 1016.2
20260504014003 8 0 0.0 0.0 0.00 0.00 0.00 54 1015.9
20260504013025 8 0 0.0 0.0 0.00 0.00 0.00 51 1015.8
20260504012003 9 0 0.0 0.0 0.00 0.00 0.00 49 1016.0
20260504011003 10 0 0.0 0.0 0.00 0.00 0.00 47 1015.9
20260504010004 10 0 0.0 0.0 0.00 0.00 0.00 46 1015.8
20260504005004 11 0 0.0 0.0 0.00 0.00 0.00 44 1015.5
20260504004003 11 299 0.0 4.8 0.00 0.00 0.00 43 1015.5
20260504003003 11 116 0.0 4.8 0.00 0.00 0.00 43 1015.5
20260504002003 11 118 0.0 4.8 0.00 0.00 0.00 43 1015.4
20260504001003 11 108 0.0 4.8 0.00 0.00 0.00 41 1015.4
20260504000003 12 296 0.0 6.4 0.00 0.00 0.00 41 1015.3
20260503235003 12 292 1.6 11.3 0.00 0.00 0.00 39 1015.4
20260503234003 13 59 1.6 11.3 0.00 0.00 0.00 37 1015.4
20260503233003 13 135 1.6 8.0 0.00 0.00 0.00 37 1015.5
20260503232003 13 65 1.6 14.5 0.00 0.00 0.00 35 1015.4
20260503231024 13 80 1.6 12.9 0.00 0.00 0.00 35 1015.3
20260503230024 14 318 1.6 12.9 0.00 0.00 0.00 35 1015.3
20260503225003 14 60 1.6 17.7 0.00 0.00 0.00 34 1015.3
20260503224003 14 85 1.6 16.1 0.00 0.00 0.00 33 1015.2
20260503223003 15 89 1.6 9.7 0.00 0.00 0.00 34 1015.4
20260503222003 15 71 1.6 14.5 0.00 0.00 0.00 33 1015.4
20260503221003 15 97 1.6 16.1 0.00 0.00 0.00 33 1015.4
20260503220024 15 89 3.2 9.7 0.00 0.00 0.00 33 1015.3
20260503215003 15 34 1.6 17.7 0.00 0.00 0.00 31 1015.5
20260503214003 15 91 3.2 14.5 0.00 0.00 0.00 34 1015.5
20260503213003 15 63 1.6 12.9 0.00 0.00 0.00 31 1015.4
20260503212024 16 114 1.6 8.0 0.00 0.00 0.00 30 1015.4
20260503211003 16 95 1.6 8.0 0.00 0.00 0.00 33 1015.5
20260503210003 15 80 1.6 11.3 0.00 0.00 0.00 30 1015.5
20260503205024 15 109 1.6 14.5 0.00 0.00 0.00 31 1015.5
20260503204003 15 65 1.6 11.3 0.00 0.00 0.00 29 1015.7
20260503203003 15 312 1.6 14.5 0.00 0.00 0.00 29 1015.8
20260503202003 15 71 1.6 12.9 0.00 0.00 0.00 30 1015.9
20260503201003 15 81 3.2 9.7 0.00 0.00 0.00 29 1016.0
20260503200003 15 84 1.6 11.3 0.00 0.00 0.00 30 1016.0
20260503195003 15 71 1.6 12.9 0.00 0.00 0.00 31 1016.3
20260503194003 15 82 1.6 11.3 0.00 0.00 0.00 31 1016.2
20260503193024 14 65 1.6 9.7 0.00 0.00 0.00 35 1016.5
20260503192003 14 81 3.2 12.9 0.00 0.00 0.00 35 1016.7
20260503191003 14 24 1.6 14.5 0.00 0.00 0.00 32 1016.7
20260503190003 14 22 1.6 11.3 0.00 0.00 0.00 33 1016.8
20260503185003 13 323 1.6 8.0 0.00 0.00 0.00 33 1017.0
20260503184003 13 350 1.6 12.9 0.00 0.00 0.00 35 1017.1
20260503183003 13 26 1.6 9.7 0.00 0.00 0.00 33 1017.0
20260503182004 13 87 1.6 9.7 0.00 0.00 0.00 34 1017.2
20260503181004 13 256 1.6 9.7 0.00 0.00 0.00 32 1017.3
20260503180004 12 327 1.6 8.0 0.00 0.00 0.00 32 1017.5
20260503175003 12 310 1.6 11.3 0.00 0.00 0.00 35 1017.8
20260503174003 12 74 1.6 4.8 0.00 0.00 0.00 41 1017.9
20260503173003 12 96 1.6 11.3 0.00 0.00 0.00 36 1017.9
20260503172024 12 77 1.6 4.8 0.00 0.00 0.00 39 1017.9
20260503171003 12 91 1.6 9.7 0.00 0.00 0.00 32 1018.2
20260503131003 5 42 1.6 11.3 0.00 0.00 0.00 50 1019.1